Weather History for Toluca Jose Maria, Mexico

Change the Weather History Date:

Sunday, August 25, 2013

  Actual Average Record
Temperature  
Mean Temperature 59 °F -  
Max Temperature 68 °F 67 °F 73 °F (1998)
Min Temperature 50 °F 48 °F 44 °F (2014)
Degree Days  
Heating Degree Days 6    
Growing Degree Days 9 (Base 50)    
Moisture  
Dew Point 49 °F    
Average Humidity 72    
Maximum Humidity 88    
Minimum Humidity 52    
Precipitation  
Precipitation 0.00 in - - ()
Sea Level Pressure  
Sea Level Pressure 30.18 in    
Wind  
Wind Speed 4 mph ()    
Max Wind Speed 15 mph    
Max Gust Speed -    
Visibility 6.2 miles    
Events      
Averages and records for this station are not official NWS values.
T = Trace of Precipitation, MM = Missing Value Source: Averaged Metar Reports

Daily Weather History Graph

Daily Weather History Graph

Search for Another Location

Airport:

Trip Planner

Search our weather history database for the weather conditions in past years. The results will help you decide how hot, cold, wet, or windy it might be!

Date:

Astronomy

Aug. 25, 2013 Rise Set
Actual Time 7:21 AM CDT 7:58 PM CDT
Civil Twilight 6:59 AM CDT 8:20 PM CDT
Nautical Twilight 6:32 AM CDT 8:47 PM CDT
Astronomical Twilight 6:06 AM CDT 9:13 PM CDT
Moon 11:21 PM CDT (8/25) 11:36 AM CDT (8/25)
Length of Visible Light 13h 21m
Length of Day
12h 36m
Waning Gibbous, 75% of the Moon is Illuminated
Aug 25
Waning Gibbous
Aug 28
Last Quarter
Sep 5
New
Sep 12
First Quarter
Sep 19
Full

Hourly Weather History & Observations

Time (CDT) Temp. Dew Point Humidity Pressure Visibility Wind Dir Wind Speed Gust Speed Precip Events Conditions
12:45 AM 55.4 °F 48.2 °F 77% 29.79 in 8.0 mi Calm Calm - N/A   Scattered Clouds
1:45 AM 53.6 °F 48.2 °F 82% 30.39 in 8.0 mi WSW 3.5 mph - N/A   Scattered Clouds
2:45 AM 51.8 °F 48.2 °F 88% 30.37 in 8.0 mi Calm Calm - N/A   Scattered Clouds
3:45 AM 50.0 °F 46.4 °F 87% 29.83 in 8.0 mi Calm Calm - N/A   Scattered Clouds
4:45 AM 51.8 °F 48.2 °F 88% 30.36 in 8.0 mi WNW 4.6 mph - N/A   Scattered Clouds
5:45 AM 51.8 °F 48.2 °F 88% 30.36 in 8.0 mi Calm Calm - N/A   Scattered Clouds
6:45 AM 51.8 °F 48.2 °F 88% 29.83 in 5.0 mi Calm Calm - N/A   Mostly Cloudy
7:46 AM 50.0 °F 46.4 °F 87% 30.37 in 5.0 mi Calm Calm - N/A   Scattered Clouds
8:41 AM 51.8 °F 48.2 °F 88% 30.38 in 4.0 mi WNW 5.8 mph - N/A   Mostly Cloudy
9:49 AM 59.0 °F 50.0 °F 72% 29.81 in 5.0 mi WNW 3.5 mph - N/A   Mostly Cloudy
10:44 AM 62.6 °F 51.8 °F 68% 30.40 in 6.0 mi NNW 5.8 mph - N/A   Mostly Cloudy
11:47 AM 62.6 °F 48.2 °F 59% 30.40 in 6.0 mi NNE 12.7 mph - N/A   Mostly Cloudy
12:50 PM 66.2 °F 48.2 °F 52% 29.78 in 6.0 mi NE 9.2 mph - N/A   Mostly Cloudy
1:42 PM 68.0 °F 50.0 °F 52% 30.37 in 7.0 mi ENE 13.8 mph - N/A   Mostly Cloudy
2:43 PM 64.4 °F 48.2 °F 56% 30.36 in 7.0 mi ENE 10.4 mph - N/A   Mostly Cloudy
3:40 PM 68.0 °F 50.0 °F 52% 29.80 in 7.0 mi NE 12.7 mph - N/A   Mostly Cloudy
4:42 PM 66.2 °F 48.2 °F 52% 30.32 in 7.0 mi NNE 15.0 mph - N/A   Mostly Cloudy
5:43 PM 64.4 °F 48.2 °F 56% 30.30 in 7.0 mi ENE 6.9 mph - N/A   Mostly Cloudy
6:45 PM 59.0 °F 50.0 °F 72% 29.82 in 6.0 mi NE 10.4 mph - N/A   Mostly Cloudy
7:44 PM 59.0 °F 48.2 °F 67% 30.32 in 5.0 mi NNE 8.1 mph - N/A   Mostly Cloudy
8:43 PM 57.2 °F 50.0 °F 77% 30.34 in 5.0 mi NE 5.8 mph - N/A   Mostly Cloudy
9:51 PM 57.2 °F 48.2 °F 72% 29.81 in 5.0 mi ENE 10.4 mph - N/A   Mostly Cloudy
10:43 PM 57.2 °F 48.2 °F 72% 30.38 in 5.0 mi NNE 12.7 mph - N/A   Mostly Cloudy
11:42 PM 57.2 °F 48.2 °F 72% 30.38 in 4.0 mi NE 5.8 mph - N/A   Mostly Cloudy